Flag for Brazil Weather past 2 weeks in Rio Branco, Acre, Brazil

Now
77 °F

Thunderstorms. Scattered clouds.


Feels Like: 79 °F
Forecast: 71 / 92 °F
Wind: 15 mph from Northeast

Location: Rio Branco Airport

Current Time: Aug 31, 2015 at 7:09:15 PM

Latest Report: Aug 31, 2015 at 6:00 PM


Visibility: N/A

Pressure: 29.92 "Hg

Humidity: 79%

Dew point: 70 °F

Location of Rio BrancoLocation

Historic Weather in Rio Branco — Graph

°F

Rio Branco temperature yesterday

Maximum temperature yesterday: 93 °F (at 12:00 PM)
Minimum temperature yesterday: 72 °F (at 3:00 AM)
Average temperature yesterday: 80 °F

Past Weeks' High & Low Weather Summary

 TemperatureHumidityPressure
High97 °F (Aug 22, 3:00 PM)100% (Aug 18, 6:00 AM)30.04 "Hg (Aug 18, 6:00 AM)
Low36 °F (Aug 28, 12:00 AM)32% (Aug 24, 1:00 PM)29.74 "Hg (Aug 26, 4:00 PM)
Average81 °F71%29.89 "Hg
* Reported Aug 16 6:00 PM — Aug 31 6:00 PM, Rio Branco, Weather by CustomWeather, © 2015

Note: Actual official high and low records may vary slightly from our data, if they occured in-between our weather recording intervals... More about our weather records

Advertising

Rio Branco weather history for previous 24 hours

 ConditionsComfort  
Time TempWeatherWind HumidityBarometerVisibility
6:00 PM
Mon, Aug 31
77 °FThunderstorms. Scattered clouds.15 mph79%29.92 "HgN/A
5:00 PM82 °FScattered clouds.5 mph70%29.89 "HgN/A
4:00 PM84 °FScattered clouds.7 mph58%29.86 "HgN/A
3:00 PM84 °FScattered showers. Scattered clouds.7 mph55%N/AN/A
2:00 PM81 °FThunderstorms. Scattered clouds.10 mph62%29.92 "HgN/A
1:00 PM90 °FScattered clouds.8 mph63%29.95 "HgN/A
12:00 PM86 °FPartly sunny.7 mph70%29.98 "HgN/A
11:00 AM82 °FPartly sunny.8 mph79%30.01 "HgN/A
10:00 AM82 °FSunny.3 mph79%30.01 "Hg10 mi
9:00 AM79 °FSunny.8 mph84%30.01 "Hg10 mi
8:00 AM75 °FSunny.6 mph83%30.01 "Hg10 mi
7:00 AM73 °FSunny.No wind89%29.98 "Hg10 mi
6:00 AM73 °FPassing clouds.6 mph89%29.95 "HgN/A
5:00 AM73 °FPassing clouds.7 mph94%29.95 "HgN/A
4:00 AM75 °FPassing clouds.13 mph83%29.95 "HgN/A
3:00 AM75 °FPassing clouds.8 mph89%29.95 "HgN/A
2:00 AM73 °FClear.No wind94%29.92 "Hg10 mi
1:00 AM75 °FClear.No wind89%29.92 "Hg10 mi
12:00 AM75 °FClear.No wind89%29.95 "Hg10 mi
11:00 PM
Sun, Aug 30
77 °FClear.2 mph83%29.95 "Hg10 mi
10:00 PM75 °FClear.2 mph89%29.92 "Hg10 mi
9:00 PM75 °FClear.No wind89%29.92 "Hg10 mi
8:00 PM77 °FClear.No wind79%29.89 "Hg10 mi
7:00 PM77 °FClear.No wind89%29.86 "Hg10 mi
Weather by CustomWeather, © 2015

See weather overviewHow to use our weather pages